Regional Weather Roundup
Issued by NWS

Home | Current Version | Previous Version | Graphics & Text | Print | Product List | Glossary On
Versions: 1 2 3 4 5 6 7 8 9 10 11 12 13 14 15 16 17 18 19 20 21 22 23 24 25 26 27 28
000
ASUS45 KSLC 180010
RWRUT

UTAH REGIONAL WEATHER ROUNDUP
NATIONAL WEATHER SERVICE SALT LAKE CITY UT
600 PM MDT TUE OCT 17 2017

UTZ001>011-023>025-180100-

NORTHERN UTAH

CITY           SKY/WX    TMP DP  RH WIND       PRES   REMARKS
BRIGHAM CITY   MOCLDY    64  22  19 W3        30.13F
HILL AFB       PTCLDY    61  30  31 NW8       30.13F
LOGAN          MOCLDY    61  26  26 NE9       30.12F
OGDEN          PTCLDY    60  36  40 N8        30.12F
SALT LAKE CITY MOCLDY    60  35  39 W9        30.12S
TOOELE VALLEY  PTCLDY    55  32  41 CALM      30.14F
WENDOVER       MOCLDY    56  18  22 CALM      30.13F
WEST JORDAN    PTCLDY    60  35  38 NW10      30.13S

$$

UTZ011>015-024>027-180100-

CENTRAL/NORTHEAST UTAH

CITY           SKY/WX    TMP DP  RH WIND       PRES   REMARKS
PROVO AIRPORT  PTCLDY    60  27  28 NW3       30.12F
MOAB/CANYONLAN CLEAR     70   9   9 CALM      30.15F
DELTA          CLEAR     72  14  11 CALM      30.12F
PRICE          CLEAR     65  11  12 VRB3      30.22F
RICHFIELD      CLEAR     66  18  15 CALM      30.16S
ROOSEVELT      CLOUDY    63  14  15 CALM      30.19F
VERNAL         CLEAR     61  17  18 SW3       30.17F

$$

UTZ013>016-019>022-027-180100-

SOUTHERN UTAH

CITY           SKY/WX    TMP DP  RH WIND       PRES   REMARKS
BRYCE CANYON   CLEAR     65  13  13 SE13      30.30F
CEDAR CITY     LGT RAIN  73  19  13 SW15      30.16F
MILFORD        MOCLDY    74  15  10 S9        30.11F
ST GEORGE      PTCLDY    83  15   8 S3        30.03F
HANKSVILLE     CLEAR     70  14  11 S3        30.17F
KANAB          CLEAR     77  25  14 S6        30.17F
BLANDING         N/A     67   9  10 S3        30.31S

$$

REGIONAL REPORTS     COLORADO/ARIZONA

CITY           SKY/WX    TMP DP  RH WIND       PRES   REMARKS
CRAIG, CO      CLEAR     63  11  13 W7        30.21F
GRAND JUNCTION CLOUDY    67  13  12 W6        30.19F
RIFLE, CO      CLEAR     66   6   9 SW8       30.20F
MONTROSE, CO   CLEAR     65  12  12 N6        30.24S
CORTEZ, CO     CLEAR     67   1   7 NW9       30.24F
COLORADO CITY    N/A     81  27  13 W9        30.17F
PAGE, AZ       CLEAR     72  14  11 CALM      30.13
GRAND CANYON   CLEAR     72  21  14 W8        30.28F
KINGMAN, AZ    MOSUNNY   85  29  13 SW15      30.07F
FLAGSTAFF, AZ  CLEAR     69  20  15 SW10      30.30S

$$

REGIONAL REPORTS    NEVADA/IDAHO/WYOMING

CITY           SKY/WX    TMP DP  RH WIND       PRES   REMARKS
LAS VEGAS, NV  MOSUNNY   86  11   6 CALM      29.99F
ELY, NY        CLEAR     71  18  13 S9        30.19F
ELKO, NV       CLOUDY    68   6   9 SW9       30.15F
POCATELLO, ID  CLOUDY    64  24  21 S9        30.09F
BURLEY, ID     PTCLDY    69  23  17 W5        30.07S
FORT BRIDGER,    N/A     64  -1   7 W10G20    30.24S
EVANSTON, WY   CLOUDY    64   4   9 SW15      30.23F
ROCK SPRINGS,  CLOUDY    60   7  12 SW8       30.18F
KEMMERER, WY   CLOUDY    57   3  11 W14       30.22S

$$




USA.gov is the U.S. government's official web portal to all federal, state and local government web resources and services.